NKS356 KLAX-KOAK

Flight info

Callsign NKS356
Flight time 0h 59m
Altitude 36000
Route LADYJ4 COREZ RGOOD EMZOH4
Aircraft A320/M-SDE3FGHIRWY/LB1

Departure

Time 2026-04-23 03:12
Airport Los Angeles International Airport (KLAX)

Arrival

Time 2026-04-23 04:12
Airport San Francisco Bay Oakland International Airport (KOAK)
Time Latitude Longitude Altitude Speed Heading
2026-04-23 02:51 33.94659 -118.40335 91 ft 0 kts 263°
2026-04-23 03:02 33.94659 -118.40334 93 ft 1 kts 263°
2026-04-23 03:02 33.94662 -118.40305 91 ft 4 kts 270°
2026-04-23 03:02 33.94659 -118.40273 92 ft 4 kts 288°
2026-04-23 03:02 33.94647 -118.40248 92 ft 4 kts 335°
2026-04-23 03:03 33.94636 -118.40244 91 ft 1 kts 353°
2026-04-23 03:03 33.94635 -118.40244 91 ft 0 kts 353°
2026-04-23 03:08 33.94676 -118.40249 94 ft 13 kts 353°
2026-04-23 03:08 33.94777 -118.40264 93 ft 16 kts 353°
2026-04-23 03:09 33.94830 -118.40223 94 ft 0 kts 85°
2026-04-23 03:09 33.94830 -118.40217 94 ft 5 kts 85°
2026-04-23 03:09 33.94863 -118.40087 95 ft 13 kts 25°
2026-04-23 03:09 33.94907 -118.40072 93 ft 6 kts 26°
2026-04-23 03:10 33.94930 -118.39954 93 ft 13 kts 74°
2026-04-23 03:10 33.94952 -118.39923 95 ft 0 kts 34°
2026-04-23 03:11 33.94967 -118.39912 93 ft 8 kts 27°
2026-04-23 03:11 33.95030 -118.39927 93 ft 11 kts 317°
2026-04-23 03:11 33.95035 -118.40026 94 ft 14 kts 261°
2026-04-23 03:11 33.94999 -118.40368 98 ft 73 kts 263°
2026-04-23 03:12 33.94914 -118.41200 98 ft 124 kts 263°
2026-04-23 03:12 33.94794 -118.42378 264 ft 151 kts 263°
2026-04-23 03:12 33.94669 -118.43673 765 ft 160 kts 263°
2026-04-23 03:12 33.94539 -118.44991 1528 ft 157 kts 265°
2026-04-23 03:13 33.94409 -118.46317 2064 ft 166 kts 264°
2026-04-23 03:13 33.94316 -118.47790 2317 ft 187 kts 270°
2026-04-23 03:13 33.94261 -118.49445 2595 ft 207 kts 270°
2026-04-23 03:13 33.94200 -118.51276 2914 ft 231 kts 268°
2026-04-23 03:14 33.94073 -118.53275 3359 ft 252 kts 266°
2026-04-23 03:14 33.93905 -118.55417 4114 ft 260 kts 266°
2026-04-23 03:14 33.93724 -118.57597 5004 ft 264 kts 265°
2026-04-23 03:14 33.93549 -118.59811 5923 ft 265 kts 270°
2026-04-23 03:15 33.93772 -118.61991 6812 ft 264 kts 289°
2026-04-23 03:15 33.94644 -118.63938 7592 ft 269 kts 309°
2026-04-23 03:15 33.96064 -118.65411 7922 ft 271 kts 326°
2026-04-23 03:15 33.97673 -118.66585 7989 ft 270 kts 329°
2026-04-23 03:16 33.99417 -118.67400 7995 ft 270 kts 344°
2026-04-23 03:16 34.01300 -118.67611 7999 ft 274 kts 359°
2026-04-23 03:16 34.05089 -118.67353 7999 ft 275 kts 359°
2026-04-23 03:17 34.06999 -118.67237 7998 ft 275 kts 359°
2026-04-23 03:17 34.08906 -118.66917 8074 ft 280 kts
2026-04-23 03:17 34.10832 -118.66455 8901 ft 282 kts
2026-04-23 03:17 34.12769 -118.65997 9745 ft 285 kts
2026-04-23 03:18 34.14742 -118.65535 10357 ft 296 kts
2026-04-23 03:18 34.16846 -118.65049 10585 ft 319 kts
2026-04-23 03:18 34.19073 -118.64528 11049 ft 330 kts
2026-04-23 03:18 34.21318 -118.63999 11677 ft 335 kts
2026-04-23 03:19 34.23622 -118.63557 12356 ft 335 kts 358°
2026-04-23 03:19 34.25935 -118.63617 13024 ft 331 kts 346°
2026-04-23 03:19 34.28200 -118.64109 13702 ft 332 kts 343°
2026-04-23 03:19 34.30478 -118.64637 14330 ft 335 kts 343°
2026-04-23 03:20 34.32782 -118.65168 14897 ft 339 kts 342°
2026-04-23 03:20 34.35112 -118.65700 15469 ft 342 kts 342°
2026-04-23 03:20 34.37466 -118.66234 16022 ft 345 kts 342°
2026-04-23 03:20 34.39792 -118.66757 16674 ft 344 kts 342°
2026-04-23 03:21 34.42127 -118.67408 17184 ft 344 kts 334°
2026-04-23 03:21 34.44298 -118.68560 17761 ft 339 kts 324°
2026-04-23 03:21 34.46338 -118.70009 18292 ft 342 kts 323°
2026-04-23 03:21 34.48406 -118.71474 18810 ft 346 kts 323°
2026-04-23 03:22 34.50495 -118.72947 19290 ft 349 kts 323°
2026-04-23 03:22 34.52597 -118.74429 19873 ft 350 kts 323°
2026-04-23 03:22 34.54712 -118.75921 20433 ft 353 kts 323°
2026-04-23 03:22 34.56839 -118.77423 20947 ft 356 kts 323°
2026-04-23 03:23 34.58955 -118.78919 21417 ft 359 kts 323°
2026-04-23 03:23 34.61118 -118.80450 21876 ft 361 kts 322°
2026-04-23 03:23 34.63289 -118.81989 22371 ft 362 kts 323°
2026-04-23 03:23 34.65466 -118.83533 22864 ft 363 kts 323°
2026-04-23 03:24 34.67654 -118.85087 23260 ft 365 kts 322°
2026-04-23 03:24 34.69850 -118.86650 23644 ft 367 kts 322°
2026-04-23 03:24 34.72057 -118.88218 24001 ft 368 kts 322°
2026-04-23 03:24 34.74277 -118.89791 24375 ft 370 kts 322°
2026-04-23 03:25 34.76478 -118.91351 24724 ft 372 kts 322°
2026-04-23 03:25 34.78720 -118.92946 25066 ft 375 kts 322°
2026-04-23 03:25 34.80980 -118.94557 25410 ft 378 kts 322°
2026-04-23 03:25 34.83254 -118.96181 25789 ft 379 kts 321°
2026-04-23 03:26 34.85531 -118.97808 26150 ft 381 kts 322°
2026-04-23 03:26 34.87822 -118.99449 26428 ft 384 kts 322°
2026-04-23 03:26 34.90127 -119.01100 26790 ft 386 kts 322°
2026-04-23 03:26 34.92447 -119.02760 27163 ft 388 kts 322°
2026-04-23 03:27 34.94781 -119.04431 27513 ft 390 kts 322°
2026-04-23 03:27 34.97097 -119.06090 27879 ft 393 kts 321°
2026-04-23 03:27 34.99459 -119.07783 28256 ft 395 kts 321°
2026-04-23 03:27 35.01832 -119.09483 28625 ft 397 kts 321°
2026-04-23 03:28 35.04223 -119.11196 28984 ft 400 kts 321°
2026-04-23 03:28 35.06625 -119.12918 29331 ft 402 kts 321°
2026-04-23 03:28 35.09048 -119.14656 29674 ft 405 kts 321°
2026-04-23 03:28 35.11480 -119.16405 30016 ft 407 kts 321°
2026-04-23 03:29 35.13932 -119.18172 30326 ft 410 kts 321°
2026-04-23 03:29 35.16358 -119.19920 30660 ft 411 kts 321°
2026-04-23 03:29 35.18819 -119.21689 31128 ft 408 kts 321°
2026-04-23 03:29 35.21261 -119.23441 31608 ft 406 kts 321°
2026-04-23 03:30 35.23686 -119.25184 32089 ft 403 kts 321°
2026-04-23 03:30 35.26098 -119.26925 32538 ft 401 kts 320°
2026-04-23 03:30 35.28493 -119.28659 33000 ft 399 kts 320°
2026-04-23 03:30 35.30880 -119.30388 33468 ft 397 kts 320°
2026-04-23 03:31 35.33256 -119.32110 33904 ft 396 kts 320°
2026-04-23 03:31 35.35623 -119.33825 34360 ft 394 kts 320°
2026-04-23 03:31 35.37949 -119.35507 34743 ft 393 kts 320°
2026-04-23 03:31 35.40299 -119.37208 35083 ft 392 kts 320°
2026-04-23 03:32 35.42645 -119.38910 35399 ft 392 kts 319°
2026-04-23 03:32 35.44988 -119.40611 35702 ft 391 kts 319°
2026-04-23 03:32 35.47328 -119.42312 35999 ft 391 kts 319°
2026-04-23 03:32 35.49672 -119.44019 36116 ft 392 kts 319°
2026-04-23 03:33 35.54367 -119.47441 36160 ft 391 kts 319°
2026-04-23 03:33 35.58587 -119.51344 36146 ft 380 kts 311°
2026-04-23 03:34 35.62648 -119.55489 36139 ft 380 kts 311°
2026-04-23 03:34 35.66718 -119.59652 36148 ft 381 kts 311°
2026-04-23 03:35 35.70785 -119.63821 36185 ft 381 kts 311°
2026-04-23 03:35 35.74831 -119.67961 36176 ft 381 kts 311°
2026-04-23 03:36 35.78901 -119.72130 36177 ft 380 kts 311°
2026-04-23 03:36 35.82963 -119.76299 36174 ft 380 kts 311°
2026-04-23 03:37 35.87020 -119.80477 36175 ft 380 kts 311°
2026-04-23 03:37 35.91044 -119.84630 36191 ft 379 kts 310°
2026-04-23 03:38 35.94900 -119.89001 36184 ft 375 kts 307°
2026-04-23 03:38 35.98611 -119.93510 36180 ft 374 kts 307°
2026-04-23 03:39 36.02330 -119.98007 36189 ft 375 kts 307°
2026-04-23 03:39 36.06054 -120.02438 36184 ft 373 kts 307°
2026-04-23 03:40 36.09794 -120.06865 36177 ft 372 kts 307°
2026-04-23 03:40 36.13527 -120.11306 36182 ft 373 kts 307°
2026-04-23 03:41 36.17259 -120.15761 36167 ft 373 kts 307°
2026-04-23 03:41 36.20993 -120.20229 36213 ft 374 kts 307°
2026-04-23 03:42 36.24706 -120.24671 36207 ft 374 kts 307°
2026-04-23 03:42 36.28444 -120.29145 36206 ft 374 kts 307°
2026-04-23 03:43 36.32188 -120.33632 35941 ft 374 kts 307°
2026-04-23 03:43 36.34042 -120.35861 35542 ft 369 kts 307°
2026-04-23 03:43 36.35876 -120.38060 35159 ft 365 kts 307°
2026-04-23 03:44 36.37667 -120.40209 34746 ft 362 kts 308°
2026-04-23 03:44 36.39464 -120.42368 34375 ft 357 kts 308°
2026-04-23 03:44 36.41241 -120.44501 33950 ft 354 kts 308°
2026-04-23 03:44 36.42999 -120.46608 33562 ft 349 kts 308°
2026-04-23 03:45 36.44728 -120.48689 33183 ft 344 kts 307°
2026-04-23 03:45 36.46434 -120.50746 32800 ft 339 kts 307°
2026-04-23 03:45 36.48117 -120.52778 32437 ft 335 kts 307°
2026-04-23 03:45 36.49755 -120.54756 32076 ft 331 kts 307°
2026-04-23 03:46 36.51393 -120.56740 31707 ft 327 kts 307°
2026-04-23 03:46 36.53010 -120.58702 31343 ft 323 kts 307°
2026-04-23 03:46 36.54633 -120.60642 30904 ft 324 kts 308°
2026-04-23 03:46 36.56305 -120.62529 30474 ft 325 kts 309°
2026-04-23 03:47 36.58003 -120.64389 30029 ft 325 kts 310°
2026-04-23 03:47 36.59703 -120.66231 29606 ft 323 kts 310°
2026-04-23 03:47 36.61392 -120.68064 29198 ft 321 kts 310°
2026-04-23 03:47 36.63064 -120.69887 28808 ft 318 kts 310°
2026-04-23 03:48 36.64692 -120.71677 28428 ft 315 kts 310°
2026-04-23 03:48 36.66324 -120.73487 28045 ft 313 kts 310°
2026-04-23 03:48 36.67942 -120.75285 27702 ft 310 kts 311°
2026-04-23 03:48 36.69549 -120.77073 27292 ft 309 kts 311°
2026-04-23 03:49 36.71141 -120.78846 26915 ft 305 kts 311°
2026-04-23 03:49 36.72718 -120.80605 26527 ft 303 kts 311°
2026-04-23 03:49 36.74283 -120.82350 26156 ft 301 kts 311°
2026-04-23 03:49 36.75841 -120.84087 25771 ft 300 kts 312°
2026-04-23 03:50 36.77371 -120.85796 25401 ft 299 kts 312°
2026-04-23 03:50 36.78919 -120.87520 25010 ft 298 kts 312°
2026-04-23 03:50 36.80470 -120.89235 24626 ft 297 kts 313°
2026-04-23 03:50 36.82016 -120.90942 24233 ft 297 kts 313°
2026-04-23 03:51 36.83564 -120.92656 23832 ft 298 kts 313°
2026-04-23 03:51 36.85115 -120.94371 23382 ft 298 kts 314°
2026-04-23 03:51 36.86662 -120.96085 22953 ft 297 kts 314°
2026-04-23 03:51 36.88198 -120.97791 22559 ft 294 kts 314°
2026-04-23 03:52 36.89725 -120.99488 22168 ft 293 kts 314°
2026-04-23 03:52 36.91246 -121.01182 21764 ft 292 kts 314°
2026-04-23 03:52 36.92742 -121.02847 21374 ft 291 kts 314°
2026-04-23 03:52 36.94256 -121.04527 20973 ft 291 kts 314°
2026-04-23 03:53 36.95769 -121.06213 20569 ft 291 kts 314°
2026-04-23 03:53 36.97279 -121.07898 20178 ft 291 kts 314°
2026-04-23 03:53 36.98788 -121.09581 19789 ft 290 kts 314°
2026-04-23 03:53 37.00293 -121.11260 19405 ft 290 kts 315°
2026-04-23 03:54 37.01797 -121.12941 19000 ft 290 kts 315°
2026-04-23 03:54 37.03301 -121.14619 18608 ft 290 kts 315°
2026-04-23 03:54 37.04787 -121.16275 18186 ft 289 kts 315°
2026-04-23 03:54 37.06284 -121.17951 17782 ft 288 kts 315°
2026-04-23 03:55 37.07777 -121.19620 17397 ft 287 kts 315°
2026-04-23 03:55 37.09263 -121.21283 17016 ft 286 kts 316°
2026-04-23 03:55 37.10760 -121.22962 16459 ft 291 kts 316°
2026-04-23 03:55 37.12272 -121.24658 16018 ft 292 kts 316°
2026-04-23 03:56 37.13781 -121.26351 15641 ft 291 kts 316°
2026-04-23 03:56 37.15272 -121.28058 15260 ft 290 kts 315°
2026-04-23 03:56 37.16731 -121.29752 14888 ft 290 kts 315°
2026-04-23 03:56 37.18208 -121.31478 14510 ft 290 kts 315°
2026-04-23 03:57 37.19684 -121.33204 14124 ft 290 kts 316°
2026-04-23 03:57 37.21159 -121.34931 13715 ft 290 kts 316°
2026-04-23 03:57 37.22632 -121.36655 13327 ft 289 kts 316°
2026-04-23 03:57 37.24099 -121.38370 12937 ft 288 kts 316°
2026-04-23 03:58 37.25560 -121.40075 12578 ft 286 kts 317°
2026-04-23 03:58 37.27021 -121.41771 12208 ft 285 kts 317°
2026-04-23 03:58 37.28475 -121.43459 11838 ft 285 kts 317°
2026-04-23 03:58 37.29907 -121.45127 11483 ft 284 kts 317°
2026-04-23 03:59 37.31355 -121.46818 11120 ft 284 kts 318°
2026-04-23 03:59 37.32800 -121.48508 10761 ft 284 kts 318°
2026-04-23 03:59 37.34245 -121.50195 10397 ft 284 kts 319°
2026-04-23 03:59 37.35689 -121.51879 10130 ft 280 kts 319°
2026-04-23 04:00 37.37094 -121.53525 9950 ft 273 kts 319°
2026-04-23 04:00 37.38475 -121.55139 9649 ft 272 kts 319°
2026-04-23 04:00 37.39875 -121.56747 9325 ft 271 kts 319°
2026-04-23 04:00 37.41246 -121.58306 9045 ft 269 kts 320°
2026-04-23 04:01 37.42631 -121.59880 8724 ft 268 kts 319°
2026-04-23 04:01 37.43984 -121.61481 8271 ft 267 kts 313°
2026-04-23 04:01 37.45116 -121.63365 7576 ft 274 kts 307°
2026-04-23 04:01 37.46225 -121.65308 7246 ft 267 kts 308°
2026-04-23 04:02 37.47267 -121.67141 7112 ft 248 kts 307°
2026-04-23 04:02 37.48232 -121.68845 7005 ft 232 kts 308°
2026-04-23 04:02 37.49160 -121.70478 6840 ft 225 kts 307°
2026-04-23 04:02 37.50061 -121.72063 6708 ft 221 kts 308°
2026-04-23 04:03 37.50946 -121.73612 6559 ft 223 kts 308°
2026-04-23 04:03 37.51843 -121.75182 6411 ft 220 kts 308°
2026-04-23 04:03 37.52731 -121.76739 6260 ft 218 kts 307°
2026-04-23 04:03 37.53420 -121.78457 6097 ft 222 kts 291°
2026-04-23 04:04 37.53902 -121.80299 5876 ft 221 kts 291°
2026-04-23 04:04 37.54393 -121.82146 5668 ft 222 kts 291°
2026-04-23 04:04 37.54888 -121.83997 5457 ft 223 kts 291°
2026-04-23 04:04 37.55378 -121.85833 5244 ft 220 kts 291°
2026-04-23 04:05 37.55863 -121.87659 5048 ft 219 kts 291°
2026-04-23 04:05 37.56340 -121.89456 4843 ft 219 kts 291°
2026-04-23 04:05 37.56821 -121.91274 4636 ft 218 kts 291°
2026-04-23 04:05 37.57302 -121.93088 4421 ft 219 kts 291°
2026-04-23 04:06 37.57781 -121.94905 4218 ft 218 kts 290°
2026-04-23 04:06 37.58259 -121.96716 4015 ft 217 kts 290°
2026-04-23 04:06 37.58737 -121.98529 3811 ft 218 kts 290°
2026-04-23 04:06 37.59211 -122.00332 3604 ft 214 kts 290°
2026-04-23 04:07 37.59673 -122.02089 3412 ft 209 kts 290°
2026-04-23 04:07 37.60126 -122.03803 3202 ft 203 kts 290°
2026-04-23 04:07 37.60561 -122.05454 3001 ft 199 kts 290°
2026-04-23 04:07 37.60995 -122.07100 2833 ft 196 kts 290°
2026-04-23 04:08 37.61587 -122.08572 2663 ft 182 kts 309°
2026-04-23 04:08 37.62358 -122.09768 2418 ft 170 kts 312°
2026-04-23 04:08 37.63076 -122.10844 2216 ft 151 kts 312°
2026-04-23 04:08 37.63728 -122.11820 2008 ft 141 kts 312°
2026-04-23 04:09 37.64357 -122.12759 1818 ft 139 kts 312°
2026-04-23 04:09 37.64974 -122.13680 1630 ft 137 kts 311°
2026-04-23 04:09 37.65579 -122.14584 1448 ft 137 kts 310°
2026-04-23 04:09 37.66186 -122.15493 1267 ft 135 kts 311°
2026-04-23 04:10 37.66792 -122.16399 1083 ft 135 kts 310°
2026-04-23 04:10 37.67399 -122.17307 878 ft 135 kts 309°
2026-04-23 04:10 37.68002 -122.18205 720 ft 135 kts 309°
2026-04-23 04:10 37.68606 -122.19103 556 ft 133 kts 308°
2026-04-23 04:11 37.69194 -122.19999 360 ft 133 kts 307°
2026-04-23 04:11 37.69787 -122.20886 180 ft 132 kts 308°
2026-04-23 04:11 37.70380 -122.21776 18 ft 130 kts 308°
2026-04-23 04:11 37.70863 -122.22497 9 ft 74 kts 311°
2026-04-23 04:12 37.71099 -122.22851 12 ft 48 kts 309°
2026-04-23 04:12 37.71331 -122.23110 12 ft 31 kts 338°
2026-04-23 04:12 37.71490 -122.23132 13 ft 17 kts 40°
2026-04-23 04:12 37.71485 -122.23059 12 ft 10 kts 129°
2026-04-23 04:13 37.71404 -122.22930 12 ft 24 kts 130°
2026-04-23 04:13 37.71290 -122.22761 12 ft 27 kts 130°
2026-04-23 04:13 37.71190 -122.22576 12 ft 18 kts 94°
2026-04-23 04:13 37.71259 -122.22465 14 ft 19 kts 49°
2026-04-23 04:14 37.71348 -122.22330 12 ft 17 kts 68°
2026-04-23 04:14 37.71311 -122.22222 12 ft 14 kts 129°
2026-04-23 04:14 37.71231 -122.22098 12 ft 24 kts 130°
2026-04-23 04:14 37.71120 -122.21932 12 ft 25 kts 130°
2026-04-23 04:15 37.71090 -122.21801 12 ft 11 kts 84°
2026-04-23 04:15 37.71077 -122.21721 14 ft 7 kts 101°
2026-04-23 04:15 37.71073 -122.21695 12 ft 0 kts 101°